Kosmos-928

operational
NORAD ID: 10141 Int'l Des: 1977-064 Owner: VMF Country: SU
LEOCIRCULARPOLAR

About Kosmos-928

Description loading...

Live Position

Loading 3D Globe...

Upcoming Passes

Altitude History

Altitude vs Time

uPlot chart will show altitude changes over time

Two-Line Element Set

1 10141U 77064A 26061.47825937 .00000066 00000-0 52044-4 0 9992
2 10141 82.9656 217.0038 0036740 305.2182 54.5537 13.76895559442813
Epoch: Mar 2, 2026 • Age: 43 hours

Current Status

Altitude 988.1 km
Velocity 7.36 km/s
Sub-Earth Point 45.07°N, 135.18°E
Launch Date Jul 13, 1977
Age 48.6 years
Type other

Technical Details

Classification Payload
Mass 800.00 kg
Dry Mass 800.00 kg
Total Mass 800.00 kg
Length 5.00 m
Diameter 2.10 m
Span 17.00 m
Shape Cyl + Ant
Manufacturer OAZ
Bus Type KAUR-1 11F627
Phase Status In Orbit
Owner/State VMF/SU

Large Constellations

Loading constellations...